Home   Weather   Woodbridge Park   Past weeks
Flag for USA

Past Weather in Woodbridge Park, California, USA — Yesterday and Last 2 Weeks

Now
68 °F

Sunny.


Feels Like: 68 °F
Forecast: 74 / 62 °F
Wind: 5 mph from North

Location: Los Angeles / USC Campus Downtown

Current Time: Jul 18, 2019 at 8:58:16 pm

Latest Report: Jul 18, 2019 at 7:52 pm


Visibility: 10 mi

Pressure: 29.88 "Hg

Humidity: 73%

Dew Point: 59 °F

Location of Woodbridge ParkLocation

Past Weather in Woodbridge Park — Graph

°F

Woodbridge Park Temperature Yesterday

Maximum temperature yesterday: 80 °F (at 10:52 am)
Minimum temperature yesterday: 68 °F (at 1:52 am)
Average temperature yesterday: 73 °F

High & Low Weather Summary for the Past Weeks

 TemperatureHumidityPressure
High88 °F (Jul 13, 4:52 pm)93% (Jul 15, 5:52 am)30.05 "Hg (Jul 15, 5:52 am)
Low50 °F (Jul 8, 10:52 pm)19% (Jul 13, 4:52 pm)29.77 "Hg (Jul 12, 5:52 pm)
Average71 °F71%29.93 "Hg
* Reported Jul 3 7:52 pm — Jul 18 7:52 pm, Woodbridge Park. Weather by CustomWeather, © 2019

Note: Actual official high and low records may vary slightly from our data, if they occured in-between our weather recording intervals... More about our weather records

Advertising

Woodbridge Park Weather History for the Previous 24 Hours

Scroll right to see more
 ConditionsComfort  
Time TempWeatherWind HumidityBarometerVisibility
7:52 pm
Thu, Jul 18
68 °FSunny.5 mph73%29.88 "Hg10 mi
6:52 pm71 °FSunny.7 mph68%29.88 "Hg10 mi
5:52 pm73 °FSunny.6 mph64%29.89 "Hg10 mi
4:52 pm74 °FSunny.7 mph62%29.90 "Hg10 mi
3:52 pm76 °FSunny.5 mph60%29.90 "Hg10 mi
1:52 pm78 °FSunny.N/A60%29.94 "Hg10 mi
12:52 pm80 °FSunny.6 mph56%29.94 "Hg9 mi
11:52 am81 °FSunny.No wind53%29.95 "Hg7 mi
10:52 am80 °FSunny.No wind56%29.96 "Hg8 mi
10:10 am76 °FScattered clouds.No wind64%29.98 "Hg8 mi
9:52 am75 °FPartly sunny.No wind64%29.97 "Hg7 mi
8:52 am71 °FOvercast.3 mph71%29.98 "Hg7 mi
7:52 am69 °FOvercast.No wind76%29.97 "Hg6 mi
5:52 am68 °FOvercast.No wind78%29.95 "Hg8 mi
4:52 am69 °FOvercast.No wind73%29.95 "Hg8 mi
3:52 am69 °FOvercast.3 mph73%29.95 "Hg8 mi
2:52 am69 °FOvercast.No wind76%29.95 "Hg10 mi
1:52 am69 °FOvercast.No wind76%29.96 "Hg10 mi
1:11 am69 °FPassing clouds.3 mph76%29.97 "Hg10 mi
12:52 am69 °FPassing clouds.No wind76%29.96 "Hg10 mi
10:52 pm
Wed, Jul 17
70 °FOvercast.No wind76%29.95 "Hg9 mi
9:52 pm70 °FPassing clouds.3 mph76%29.94 "Hg9 mi
8:52 pm70 °FPassing clouds.5 mph76%29.92 "Hg9 mi
Weather by CustomWeather, © 2019

See weather overview